Time,TemperatureF,DewpointF,PressureIn,WindDirection,WindDirectionDegrees,WindSpeedMPH,WindSpeedGustMPH,Humidity,HourlyPrecipIn,Conditions,Clouds,dailyrainin,SoftwareType,DateUTC
2013-03-03 00:00:00,30.2,20.9,29.89,West,281,0.0,6.0,68,0.00,,---,0.00,VWS V14.01,2013-03-03 05:00:00,
2013-03-03 00:05:00,30.1,20.8,29.89,West,269,1.0,5.0,68,0.00,,---,0.00,VWS V14.01,2013-03-03 05:05:00,
2013-03-03 00:10:00,30.2,20.9,29.88,South,188,2.0,5.0,68,0.00,,---,0.00,VWS V14.01,2013-03-03 05:10:00,
2013-03-03 00:15:00,30.2,20.9,29.89,SSE,158,1.0,5.0,68,0.00,,---,0.00,VWS V14.01,2013-03-03 05:15:00,
2013-03-03 00:20:00,30.1,21.2,29.89,West,270,0.0,5.0,69,0.00,,---,0.00,VWS V14.01,2013-03-03 05:20:00,
2013-03-03 00:25:00,30.0,21.1,29.89,WNW,285,2.0,5.0,69,0.00,,---,0.00,VWS V14.01,2013-03-03 05:25:00,
2013-03-03 00:30:00,30.1,21.2,29.89,NNW,333,2.0,6.0,69,0.00,,---,0.00,VWS V14.01,2013-03-03 05:30:00,
2013-03-03 00:35:00,30.2,21.3,29.89,NW,315,0.0,5.0,69,0.00,,---,0.00,VWS V14.01,2013-03-03 05:35:00,
2013-03-03 00:40:00,30.2,21.3,29.89,North,353,0.0,6.0,69,0.00,,---,0.00,VWS V14.01,2013-03-03 05:40:00,
2013-03-03 00:45:00,30.1,21.2,29.89,NNW,346,1.0,6.0,69,0.00,,---,0.00,VWS V14.01,2013-03-03 05:45:00,
2013-03-03 00:50:00,30.1,21.5,29.89,WSW,257,3.0,6.0,70,0.00,,---,0.00,VWS V14.01,2013-03-03 05:50:00,
2013-03-03 00:55:00,30.0,21.4,29.89,NNW,345,1.0,6.0,70,0.00,,---,0.00,VWS V14.01,2013-03-03 05:55:00,
2013-03-03 01:00:00,29.9,21.7,29.89,North,9,1.0,6.0,71,0.00,,---,0.00,VWS V14.01,2013-03-03 06:00:00,
2013-03-03 01:05:00,29.8,21.6,29.89,North,355,1.0,3.0,71,0.00,,---,0.00,VWS V14.01,2013-03-03 06:05:00,
2013-03-03 01:10:00,29.8,21.6,29.89,NNE,25,2.0,7.0,71,0.00,,---,0.00,VWS V14.01,2013-03-03 06:10:00,
2013-03-03 01:15:00,29.7,21.8,29.89,West,278,1.0,7.0,72,0.00,,---,0.00,VWS V14.01,2013-03-03 06:15:00,
2013-03-03 01:20:00,29.6,21.7,29.89,WNW,300,0.0,7.0,72,0.00,,---,0.00,VWS V14.01,2013-03-03 06:20:00,
2013-03-03 01:25:00,29.6,21.7,29.89,SSW,212,0.0,7.0,72,0.00,,---,0.00,VWS V14.01,2013-03-03 06:25:00,
2013-03-03 01:30:00,29.4,21.8,29.89,NNE,17,3.0,7.0,73,0.00,,---,0.00,VWS V14.01,2013-03-03 06:30:00,
2013-03-03 01:35:00,29.5,21.6,29.89,WNW,285,2.0,6.0,72,0.00,,---,0.00,VWS V14.01,2013-03-03 06:35:00,
2013-03-03 01:40:00,29.5,21.6,29.89,WSW,249,1.0,6.0,72,0.00,,---,0.00,VWS V14.01,2013-03-03 06:40:00,
2013-03-03 01:45:00,29.5,21.9,29.89,WSW,256,1.0,6.0,73,0.00,,---,0.00,VWS V14.01,2013-03-03 06:45:00,
2013-03-03 01:50:00,29.4,21.8,29.89,NW,309,2.0,6.0,73,0.00,,---,0.00,VWS V14.01,2013-03-03 06:50:00,
2013-03-03 01:55:00,29.4,21.8,29.89,WNW,298,1.0,6.0,73,0.00,,---,0.00,VWS V14.01,2013-03-03 06:55:00,
2013-03-03 02:00:00,29.3,21.7,29.89,West,269,1.0,6.0,73,0.00,,---,0.00,VWS V14.01,2013-03-03 07:00:00,
2013-03-03 02:05:00,29.3,21.7,29.89,WNW,295,4.0,4.0,73,0.00,,---,0.00,VWS V14.01,2013-03-03 07:05:00,
2013-03-03 02:10:00,29.3,21.7,29.89,NNW,333,1.0,6.0,73,0.00,,---,0.00,VWS V14.01,2013-03-03 07:10:00,
2013-03-03 02:15:00,29.3,21.4,29.88,NNW,339,1.0,6.0,72,0.00,,---,0.00,VWS V14.01,2013-03-03 07:15:00,
2013-03-03 02:20:00,29.3,21.4,29.88,SE,145,1.0,6.0,72,0.00,,---,0.00,VWS V14.01,2013-03-03 07:20:00,
2013-03-03 02:25:00,29.2,21.3,29.88,West,264,1.0,6.0,72,0.00,,---,0.00,VWS V14.01,2013-03-03 07:25:00,
2013-03-03 02:30:00,29.2,21.3,29.88,West,276,0.0,6.0,72,0.00,,---,0.00,VWS V14.01,2013-03-03 07:30:00,
2013-03-03 02:35:00,29.1,21.2,29.88,SW,231,2.0,5.0,72,0.00,,---,0.00,VWS V14.01,2013-03-03 07:35:00,
2013-03-03 02:40:00,29.1,21.2,29.88,SSW,204,1.0,6.0,72,0.00,,---,0.00,VWS V14.01,2013-03-03 07:40:00,
2013-03-03 02:45:00,29.1,20.9,29.88,NW,307,3.0,6.0,71,0.00,,---,0.00,VWS V14.01,2013-03-03 07:45:00,
2013-03-03 02:50:00,29.1,20.9,29.88,West,281,0.0,6.0,71,0.00,,---,0.00,VWS V14.01,2013-03-03 07:50:00,
2013-03-03 02:55:00,29.0,20.8,29.88,SW,234,1.0,6.0,71,0.00,,---,0.00,VWS V14.01,2013-03-03 07:55:00,
2013-03-03 03:00:00,29.0,20.8,29.88,SW,222,1.0,6.0,71,0.00,,---,0.00,VWS V14.01,2013-03-03 08:00:00,
2013-03-03 03:05:00,29.0,20.8,29.88,NNW,335,0.0,3.0,71,0.00,,---,0.00,VWS V14.01,2013-03-03 08:05:00,
2013-03-03 03:10:00,28.9,20.7,29.88,NW,325,0.0,3.0,71,0.00,,---,0.00,VWS V14.01,2013-03-03 08:10:00,
2013-03-03 03:15:00,29.0,20.8,29.88,West,269,1.0,5.0,71,0.00,,---,0.00,VWS V14.01,2013-03-03 08:15:00,
2013-03-03 03:20:00,29.0,20.8,29.88,West,271,0.0,5.0,71,0.00,,---,0.00,VWS V14.01,2013-03-03 08:20:00,
2013-03-03 03:25:00,29.1,20.9,29.88,NNE,27,1.0,5.0,71,0.00,,---,0.00,VWS V14.01,2013-03-03 08:25:00,
2013-03-03 03:30:00,29.3,20.7,29.88,West,270,3.0,5.0,70,0.00,,---,0.00,VWS V14.01,2013-03-03 08:30:00,
2013-03-03 03:35:00,29.5,20.9,29.88,NNE,27,3.0,4.0,70,0.00,,---,0.00,VWS V14.01,2013-03-03 08:35:00,
2013-03-03 03:40:00,29.6,21.0,29.88,WNW,302,2.0,5.0,70,0.00,,---,0.00,VWS V14.01,2013-03-03 08:40:00,
2013-03-03 03:45:00,29.7,20.8,29.88,West,277,0.0,5.0,69,0.00,,---,0.00,VWS V14.01,2013-03-03 08:45:00,
2013-03-03 03:50:00,29.7,20.8,29.88,WNW,284,1.0,5.0,69,0.00,,---,0.00,VWS V14.01,2013-03-03 08:50:00,
2013-03-03 03:55:00,29.8,20.9,29.88,SW,218,2.0,5.0,69,0.00,,---,0.00,VWS V14.01,2013-03-03 08:55:00,
2013-03-03 04:00:00,29.8,20.9,29.88,NE,37,0.0,5.0,69,0.00,,---,0.00,VWS V14.01,2013-03-03 09:00:00,
2013-03-03 04:05:00,29.8,20.9,29.89,SE,133,0.0,2.0,69,0.00,,---,0.00,VWS V14.01,2013-03-03 09:05:00,
2013-03-03 04:10:00,29.9,21.0,29.89,North,4,1.0,9.0,69,0.00,,---,0.00,VWS V14.01,2013-03-03 09:10:00,
2013-03-03 04:15:00,30.0,21.1,29.89,WNW,288,1.0,9.0,69,0.00,,---,0.00,VWS V14.01,2013-03-03 09:15:00,
2013-03-03 04:20:00,30.0,21.1,29.89,WNW,300,0.0,9.0,69,0.00,,---,0.00,VWS V14.01,2013-03-03 09:20:00,
2013-03-03 04:25:00,30.0,21.1,29.89,WNW,294,0.0,9.0,69,0.00,,---,0.00,VWS V14.01,2013-03-03 09:25:00,
2013-03-03 04:30:00,29.9,21.0,29.89,WSW,243,1.0,9.0,69,0.00,,---,0.00,VWS V14.01,2013-03-03 09:30:00,
2013-03-03 04:35:00,29.8,20.9,29.89,NW,309,0.0,4.0,69,0.00,,---,0.00,VWS V14.01,2013-03-03 09:35:00,
2013-03-03 04:40:00,29.7,20.8,29.89,NNW,333,0.0,4.0,69,0.00,,---,0.00,VWS V14.01,2013-03-03 09:40:00,
2013-03-03 04:45:00,29.6,20.7,29.89,SSW,210,1.0,4.0,69,0.00,,---,0.00,VWS V14.01,2013-03-03 09:45:00,
2013-03-03 04:50:00,29.5,20.6,29.89,WNW,288,0.0,4.0,69,0.00,,---,0.00,VWS V14.01,2013-03-03 09:50:00,
2013-03-03 04:55:00,29.3,20.4,29.89,NNW,340,1.0,4.0,69,0.00,,---,0.00,VWS V14.01,2013-03-03 09:55:00,
2013-03-03 05:00:00,29.2,20.6,29.89,NNW,328,0.0,4.0,70,0.00,,---,0.00,VWS V14.01,2013-03-03 10:00:00,
2013-03-03 05:05:00,29.2,20.6,29.89,WSW,253,0.0,1.0,70,0.00,,---,0.00,VWS V14.01,2013-03-03 10:05:00,
2013-03-03 05:10:00,28.9,20.4,29.89,SW,219,0.0,1.0,70,0.00,,---,0.00,VWS V14.01,2013-03-03 10:10:00,
2013-03-03 05:15:00,28.8,20.3,29.89,NW,309,0.0,2.0,70,0.00,,---,0.00,VWS V14.01,2013-03-03 10:15:00,
2013-03-03 05:20:00,28.6,20.4,29.89,West,262,0.0,2.0,71,0.00,,---,0.00,VWS V14.01,2013-03-03 10:20:00,
2013-03-03 05:25:00,28.7,20.5,29.89,ENE,60,0.0,2.0,71,0.00,,---,0.00,VWS V14.01,2013-03-03 10:25:00,
2013-03-03 05:30:00,28.7,20.5,29.89,West,274,0.0,2.0,71,0.00,,---,0.00,VWS V14.01,2013-03-03 10:30:00,
2013-03-03 05:35:00,28.7,20.5,29.89,SW,226,0.0,1.0,71,0.00,,---,0.00,VWS V14.01,2013-03-03 10:35:00,
2013-03-03 05:40:00,28.6,20.4,29.89,SW,219,1.0,3.0,71,0.00,,---,0.00,VWS V14.01,2013-03-03 10:40:00,
2013-03-03 05:45:00,28.7,20.5,29.89,ENE,60,0.0,3.0,71,0.00,,---,0.00,VWS V14.01,2013-03-03 10:45:00,
2013-03-03 05:50:00,28.7,20.5,29.89,North,356,0.0,3.0,71,0.00,,---,0.00,VWS V14.01,2013-03-03 10:50:00,
2013-03-03 05:55:00,28.7,20.8,29.89,WNW,294,0.0,3.0,72,0.00,,---,0.00,VWS V14.01,2013-03-03 10:55:00,
2013-03-03 06:00:00,28.6,20.7,29.89,North,353,1.0,3.0,72,0.00,,---,0.00,VWS V14.01,2013-03-03 11:00:00,
2013-03-03 06:05:00,28.6,20.7,29.89,West,278,0.0,1.0,72,0.00,,---,0.00,VWS V14.01,2013-03-03 11:05:00,
2013-03-03 06:10:00,28.5,20.6,29.89,WNW,297,0.0,2.0,72,0.00,,---,0.00,VWS V14.01,2013-03-03 11:10:00,
2013-03-03 06:15:00,28.7,20.8,29.89,NNW,338,0.0,3.0,72,0.00,,---,0.00,VWS V14.01,2013-03-03 11:15:00,
2013-03-03 06:20:00,28.6,20.7,29.89,WSW,246,0.0,3.0,72,0.00,,---,0.00,VWS V14.01,2013-03-03 11:20:00,
2013-03-03 06:25:00,28.5,20.6,29.89,WNW,301,1.0,3.0,72,0.00,,---,0.00,VWS V14.01,2013-03-03 11:25:00,
2013-03-03 06:30:00,28.7,20.8,29.89,WSW,255,0.0,4.0,72,0.00,,---,0.00,VWS V14.01,2013-03-03 11:30:00,
2013-03-03 06:35:00,28.6,20.7,29.89,West,263,0.0,1.0,72,0.00,,---,0.00,VWS V14.01,2013-03-03 11:35:00,
2013-03-03 06:40:00,28.6,20.7,29.89,WNW,283,1.0,2.0,72,0.00,,---,0.00,VWS V14.01,2013-03-03 11:40:00,
2013-03-03 06:45:00,28.6,21.1,29.89,NNW,340,0.0,3.0,73,0.00,,---,0.00,VWS V14.01,2013-03-03 11:45:00,
2013-03-03 06:50:00,28.6,21.1,29.89,NNW,340,1.0,3.0,73,0.00,,---,0.00,VWS V14.01,2013-03-03 11:50:00,
2013-03-03 06:55:00,28.7,20.8,29.89,NE,47,0.0,3.0,72,0.00,,---,0.00,VWS V14.01,2013-03-03 11:55:00,
2013-03-03 07:00:00,28.8,20.9,29.89,NNW,335,1.0,3.0,72,0.00,,---,0.00,VWS V14.01,2013-03-03 12:00:00,
2013-03-03 07:05:00,28.9,21.0,29.90,NNE,22,0.0,2.0,72,0.00,,---,0.00,VWS V14.01,2013-03-03 12:05:00,
2013-03-03 07:10:00,28.9,21.4,29.90,NNW,340,0.0,2.0,73,0.00,,---,0.00,VWS V14.01,2013-03-03 12:10:00,
2013-03-03 07:15:00,29.0,21.1,29.90,WSW,256,0.0,2.0,72,0.00,,---,0.00,VWS V14.01,2013-03-03 12:15:00,
2013-03-03 07:20:00,29.2,21.3,29.90,WNW,284,0.0,5.0,72,0.00,,---,0.00,VWS V14.01,2013-03-03 12:20:00,
2013-03-03 07:25:00,29.4,21.5,29.90,NNE,26,0.0,5.0,72,0.00,,---,0.00,VWS V14.01,2013-03-03 12:25:00,
2013-03-03 07:30:00,29.6,21.7,29.91,North,352,2.0,5.0,72,0.00,,---,0.00,VWS V14.01,2013-03-03 12:30:00,
2013-03-03 07:35:00,29.8,21.9,29.91,WNW,284,0.0,2.0,72,0.00,,---,0.00,VWS V14.01,2013-03-03 12:35:00,
2013-03-03 07:40:00,30.0,21.8,29.91,West,260,2.0,4.0,71,0.00,,---,0.00,VWS V14.01,2013-03-03 12:40:00,
2013-03-03 07:45:00,30.3,22.0,29.91,WSW,238,1.0,4.0,71,0.00,,---,0.00,VWS V14.01,2013-03-03 12:45:00,
2013-03-03 07:50:00,30.6,22.3,29.91,NNE,18,2.0,4.0,71,0.00,,---,0.00,VWS V14.01,2013-03-03 12:50:00,
2013-03-03 07:55:00,30.8,21.9,29.91,WSW,246,2.0,4.0,69,0.00,,---,0.00,VWS V14.01,2013-03-03 12:55:00,
2013-03-03 08:00:00,31.1,22.1,29.91,North,5,0.0,4.0,69,0.00,,---,0.00,VWS V14.01,2013-03-03 13:00:00,
2013-03-03 08:05:00,31.4,22.4,29.91,SSW,200,0.0,3.0,69,0.00,,---,0.00,VWS V14.01,2013-03-03 13:05:00,
2013-03-03 08:10:00,31.8,22.5,29.91,West,270,0.0,3.0,68,0.00,,---,0.00,VWS V14.01,2013-03-03 13:10:00,
2013-03-03 08:15:00,32.1,22.0,29.91,NNW,338,1.0,6.0,66,0.00,,---,0.00,VWS V14.01,2013-03-03 13:15:00,
2013-03-03 08:20:00,32.5,22.4,29.91,NW,318,3.0,8.0,66,0.00,,---,0.00,VWS V14.01,2013-03-03 13:20:00,
2013-03-03 08:25:00,32.8,22.3,29.90,West,270,1.0,8.0,65,0.00,,---,0.00,VWS V14.01,2013-03-03 13:25:00,
2013-03-03 08:30:00,33.0,21.8,29.90,WNW,300,1.0,8.0,63,0.00,,---,0.00,VWS V14.01,2013-03-03 13:30:00,
2013-03-03 08:35:00,33.4,22.2,29.90,WNW,283,5.0,5.0,63,0.00,,---,0.00,VWS V14.01,2013-03-03 13:35:00,
2013-03-03 08:40:00,33.5,21.5,29.90,NW,310,3.0,5.0,61,0.00,,---,0.00,VWS V14.01,2013-03-03 13:40:00,
2013-03-03 08:45:00,33.6,21.6,29.90,ESE,110,3.0,10.0,61,0.00,,---,0.00,VWS V14.01,2013-03-03 13:45:00,
2013-03-03 08:50:00,33.7,21.3,29.91,West,273,3.0,10.0,60,0.00,,---,0.00,VWS V14.01,2013-03-03 13:50:00,
2013-03-03 08:55:00,33.6,21.2,29.90,NNW,342,3.0,10.0,60,0.00,,---,0.00,VWS V14.01,2013-03-03 13:55:00,
2013-03-03 09:00:00,33.6,21.2,29.91,NE,41,1.0,10.0,60,0.00,,---,0.00,VWS V14.01,2013-03-03 14:00:00,
2013-03-03 09:05:00,33.6,20.8,29.90,West,266,2.0,5.0,59,0.00,,---,0.00,VWS V14.01,2013-03-03 14:05:00,
2013-03-03 09:10:00,33.5,20.7,29.90,NW,311,1.0,6.0,59,0.00,,---,0.00,VWS V14.01,2013-03-03 14:10:00,
2013-03-03 09:15:00,33.5,21.1,29.90,WSW,256,4.0,8.0,60,0.00,,---,0.00,VWS V14.01,2013-03-03 14:15:00,
2013-03-03 09:20:00,33.5,20.7,29.90,WNW,293,1.0,8.0,59,0.00,,---,0.00,VWS V14.01,2013-03-03 14:20:00,
2013-03-03 09:25:00,33.9,20.7,29.90,NNE,18,4.0,10.0,58,0.00,,---,0.00,VWS V14.01,2013-03-03 14:25:00,
2013-03-03 09:30:00,34.2,20.6,29.90,SW,233,0.0,10.0,57,0.00,,---,0.00,VWS V14.01,2013-03-03 14:30:00,
2013-03-03 09:35:00,34.5,20.4,29.89,East,93,3.0,9.0,56,0.00,,---,0.00,VWS V14.01,2013-03-03 14:35:00,
2013-03-03 09:40:00,34.6,20.1,29.90,NE,50,4.0,9.0,55,0.00,,---,0.00,VWS V14.01,2013-03-03 14:40:00,
2013-03-03 09:45:00,34.8,19.4,29.90,WNW,300,2.0,9.0,53,0.00,,---,0.00,VWS V14.01,2013-03-03 14:45:00,
2013-03-03 09:50:00,35.3,19.5,29.89,NNW,333,4.0,13.0,52,0.00,,---,0.00,VWS V14.01,2013-03-03 14:50:00,
2013-03-03 09:55:00,35.5,19.6,29.90,NW,321,2.0,15.0,52,0.00,,---,0.00,VWS V14.01,2013-03-03 14:55:00,
2013-03-03 10:00:00,36.0,20.1,29.90,NNW,346,2.0,15.0,52,0.00,,---,0.00,VWS V14.01,2013-03-03 15:00:00,
2013-03-03 10:05:00,36.4,19.5,29.90,NW,309,0.0,6.0,50,0.00,,---,0.00,VWS V14.01,2013-03-03 15:05:00,
2013-03-03 10:10:00,36.4,19.5,29.90,NNW,346,3.0,7.0,50,0.00,,---,0.00,VWS V14.01,2013-03-03 15:10:00,
2013-03-03 10:15:00,36.3,19.5,29.90,WNW,283,1.0,8.0,50,0.00,,---,0.00,VWS V14.01,2013-03-03 15:15:00,
2013-03-03 10:20:00,36.1,19.3,29.90,SE,138,1.0,8.0,50,0.00,,---,0.00,VWS V14.01,2013-03-03 15:20:00,
2013-03-03 10:25:00,36.5,19.6,29.89,WSW,245,5.0,8.0,50,0.00,,---,0.00,VWS V14.01,2013-03-03 15:25:00,
2013-03-03 10:30:00,36.9,20.0,29.89,ENE,63,4.0,8.0,50,0.00,,---,0.00,VWS V14.01,2013-03-03 15:30:00,
2013-03-03 10:35:00,37.7,19.8,29.89,WNW,295,2.0,9.0,48,0.00,,---,0.00,VWS V14.01,2013-03-03 15:35:00,
2013-03-03 10:40:00,37.6,19.7,29.89,NW,323,5.0,10.0,48,0.00,,---,0.00,VWS V14.01,2013-03-03 15:40:00,
2013-03-03 10:45:00,37.9,20.0,29.89,NW,315,4.0,10.0,48,0.00,,---,0.00,VWS V14.01,2013-03-03 15:45:00,
2013-03-03 10:50:00,37.9,19.5,29.88,NW,316,3.0,14.0,47,0.00,,---,0.00,VWS V14.01,2013-03-03 15:50:00,
2013-03-03 10:55:00,38.4,19.9,29.89,West,280,2.0,14.0,47,0.00,,---,0.00,VWS V14.01,2013-03-03 15:55:00,
2013-03-03 11:00:00,37.8,19.4,29.89,NE,37,3.0,14.0,47,0.00,,---,0.00,VWS V14.01,2013-03-03 16:00:00,
2013-03-03 11:05:00,37.8,19.9,29.89,ENE,68,4.0,7.0,48,0.00,,---,0.00,VWS V14.01,2013-03-03 16:05:00,
2013-03-03 11:10:00,38.0,19.6,29.89,North,7,4.0,8.0,47,0.00,,---,0.00,VWS V14.01,2013-03-03 16:10:00,
2013-03-03 11:15:00,38.3,19.9,29.88,West,278,1.0,10.0,47,0.00,,---,0.00,VWS V14.01,2013-03-03 16:15:00,
2013-03-03 11:20:00,38.0,19.1,29.88,ENE,70,2.0,10.0,46,0.00,,---,0.00,VWS V14.01,2013-03-03 16:20:00,
2013-03-03 11:25:00,37.8,19.9,29.88,WNW,285,3.0,11.0,48,0.00,,---,0.00,VWS V14.01,2013-03-03 16:25:00,
2013-03-03 11:30:00,38.0,19.6,29.89,West,278,2.0,11.0,47,0.00,,---,0.00,VWS V14.01,2013-03-03 16:30:00,
2013-03-03 11:35:00,37.6,19.2,29.88,NW,309,3.0,6.0,47,0.00,,---,0.00,VWS V14.01,2013-03-03 16:35:00,
2013-03-03 11:40:00,37.5,20.1,29.88,WSW,257,1.0,7.0,49,0.00,,---,0.00,VWS V14.01,2013-03-03 16:40:00,
2013-03-03 11:45:00,37.3,20.4,29.88,WNW,290,3.0,9.0,50,0.00,,---,0.00,VWS V14.01,2013-03-03 16:45:00,
2013-03-03 11:50:00,37.0,20.1,29.88,WSW,256,6.0,9.0,50,0.00,,---,0.00,VWS V14.01,2013-03-03 16:50:00,
2013-03-03 11:55:00,36.8,19.9,29.88,East,92,1.0,11.0,50,0.00,,---,0.00,VWS V14.01,2013-03-03 16:55:00,
2013-03-03 12:00:00,36.7,20.3,29.88,WNW,300,3.0,11.0,51,0.00,,---,0.00,VWS V14.01,2013-03-03 17:00:00,
2013-03-03 12:05:00,36.6,20.2,29.88,NW,323,3.0,8.0,51,0.00,,---,0.00,VWS V14.01,2013-03-03 17:05:00,
2013-03-03 12:10:00,36.7,20.8,29.88,SE,136,3.0,12.0,52,0.00,,---,0.00,VWS V14.01,2013-03-03 17:10:00,
2013-03-03 12:15:00,37.1,20.7,29.88,WNW,293,4.0,12.0,51,0.00,,---,0.00,VWS V14.01,2013-03-03 17:15:00,
2013-03-03 12:19:00,37.6,21.6,29.88,ENE,65,3.0,12.0,52,0.00,,---,0.00,VWS V14.01,2013-03-03 17:19:00,
2013-03-03 12:24:00,38.1,20.6,29.88,WNW,287,5.0,12.0,49,0.00,,---,0.00,VWS V14.01,2013-03-03 17:24:00,
2013-03-03 12:29:00,38.5,21.5,29.87,WNW,288,5.0,12.0,50,0.00,,---,0.00,VWS V14.01,2013-03-03 17:29:00,
2013-03-03 12:34:00,39.0,21.5,29.87,WNW,293,3.0,7.0,49,0.00,,---,0.00,VWS V14.01,2013-03-03 17:34:00,
2013-03-03 12:39:00,39.4,20.9,29.87,West,269,2.0,9.0,47,0.00,,---,0.00,VWS V14.01,2013-03-03 17:39:00,
2013-03-03 12:44:00,39.7,20.1,29.87,NNW,339,7.0,9.0,45,0.00,,---,0.00,VWS V14.01,2013-03-03 17:44:00,
2013-03-03 12:49:00,39.5,20.5,29.86,WNW,287,5.0,9.0,46,0.00,,---,0.00,VWS V14.01,2013-03-03 17:49:00,
2013-03-03 12:54:00,40.5,20.3,29.86,West,276,6.0,9.0,44,0.00,,---,0.00,VWS V14.01,2013-03-03 17:54:00,
2013-03-03 12:59:00,41.2,21.5,29.86,NW,316,8.0,9.0,45,0.00,,---,0.00,VWS V14.01,2013-03-03 17:59:00,
2013-03-03 13:04:00,40.2,20.0,29.85,NNW,340,2.0,7.0,44,0.00,,---,0.00,VWS V14.01,2013-03-03 18:04:00,
2013-03-03 13:09:00,39.7,19.6,29.85,West,276,1.0,8.0,44,0.00,,---,0.00,VWS V14.01,2013-03-03 18:09:00,
2013-03-03 13:14:00,39.4,19.8,29.85,West,276,3.0,9.0,45,0.00,,---,0.00,VWS V14.01,2013-03-03 18:14:00,
2013-03-03 13:19:00,39.2,19.7,29.85,WNW,298,5.0,9.0,45,0.00,,---,0.00,VWS V14.01,2013-03-03 18:19:00,
2013-03-03 13:24:00,39.5,20.5,29.84,WNW,282,4.0,9.0,46,0.00,,---,0.00,VWS V14.01,2013-03-03 18:24:00,
2013-03-03 13:29:00,39.7,19.6,29.84,West,278,6.0,10.0,44,0.00,,---,0.00,VWS V14.01,2013-03-03 18:29:00,
2013-03-03 13:34:00,39.5,19.9,29.84,WSW,239,4.0,8.0,45,0.00,,---,0.00,VWS V14.01,2013-03-03 18:34:00,
2013-03-03 13:39:00,39.9,20.8,29.84,SW,232,2.0,9.0,46,0.00,,---,0.00,VWS V14.01,2013-03-03 18:39:00,
2013-03-03 13:44:00,40.4,19.7,29.84,North,5,0.0,9.0,43,0.00,,---,0.00,VWS V14.01,2013-03-03 18:44:00,
2013-03-03 13:49:00,41.1,20.9,29.83,SSW,210,2.0,9.0,44,0.00,,---,0.00,VWS V14.01,2013-03-03 18:49:00,
2013-03-03 13:54:00,41.3,20.0,29.83,West,275,6.0,9.0,42,0.00,,---,0.00,VWS V14.01,2013-03-03 18:54:00,
2013-03-03 13:59:00,40.9,19.6,29.83,NE,40,1.0,9.0,42,0.00,,---,0.00,VWS V14.01,2013-03-03 18:59:00,
2013-03-03 14:04:00,41.1,20.3,29.83,North,354,9.0,12.0,43,0.00,,---,0.00,VWS V14.01,2013-03-03 19:04:00,
2013-03-03 14:09:00,40.9,19.6,29.83,NNW,335,3.0,12.0,42,0.00,,---,0.00,VWS V14.01,2013-03-03 19:09:00,
2013-03-03 14:14:00,40.4,19.1,29.83,West,271,0.0,12.0,42,0.00,,---,0.00,VWS V14.01,2013-03-03 19:14:00,
2013-03-03 14:19:00,40.3,19.6,29.83,SW,215,1.0,12.0,43,0.00,,---,0.00,VWS V14.01,2013-03-03 19:19:00,
2013-03-03 14:24:00,40.4,19.7,29.83,West,275,7.0,12.0,43,0.00,,---,0.00,VWS V14.01,2013-03-03 19:24:00,
2013-03-03 14:29:00,40.9,20.1,29.83,NW,321,9.0,12.0,43,0.00,,---,0.00,VWS V14.01,2013-03-03 19:29:00,
2013-03-03 14:34:00,41.3,20.0,29.83,WNW,290,1.0,4.0,42,0.00,,---,0.00,VWS V14.01,2013-03-03 19:34:00,
2013-03-03 14:39:00,41.2,19.3,29.83,West,276,3.0,7.0,41,0.00,,---,0.00,VWS V14.01,2013-03-03 19:39:00,
2013-03-03 14:44:00,41.4,20.0,29.83,NNW,335,3.0,8.0,42,0.00,,---,0.00,VWS V14.01,2013-03-03 19:44:00,
2013-03-03 14:49:00,40.9,19.0,29.83,WNW,297,2.0,8.0,41,0.00,,---,0.00,VWS V14.01,2013-03-03 19:49:00,
2013-03-03 14:54:00,40.7,19.4,29.83,West,264,5.0,8.0,42,0.00,,---,0.00,VWS V14.01,2013-03-03 19:54:00,
2013-03-03 14:59:00,40.8,19.5,29.83,WNW,295,6.0,8.0,42,0.00,,---,0.00,VWS V14.01,2013-03-03 19:59:00,
2013-03-03 15:04:00,40.7,20.0,29.83,West,280,2.0,6.0,43,0.00,,---,0.00,VWS V14.01,2013-03-03 20:04:00,
2013-03-03 15:09:00,40.8,19.5,29.83,West,267,3.0,12.0,42,0.00,,---,0.00,VWS V14.01,2013-03-03 20:09:00,
2013-03-03 15:14:00,41.2,20.4,29.83,WNW,283,4.0,12.0,43,0.00,,---,0.00,VWS V14.01,2013-03-03 20:14:00,
2013-03-03 15:19:00,40.6,19.3,29.83,West,271,3.0,12.0,42,0.00,,---,0.00,VWS V14.01,2013-03-03 20:19:00,
2013-03-03 15:24:00,40.4,19.1,29.83,NNW,340,6.0,12.0,42,0.00,,---,0.00,VWS V14.01,2013-03-03 20:24:00,
2013-03-03 15:29:00,40.1,18.9,29.82,NW,310,2.0,12.0,42,0.00,,---,0.00,VWS V14.01,2013-03-03 20:29:00,
2013-03-03 15:34:00,40.1,18.9,29.82,West,280,2.0,5.0,42,0.00,,---,0.00,VWS V14.01,2013-03-03 20:34:00,
2013-03-03 15:39:00,40.3,19.6,29.82,SSW,203,0.0,5.0,43,0.00,,---,0.00,VWS V14.01,2013-03-03 20:39:00,
2013-03-03 15:44:00,40.6,19.9,29.83,ESE,108,2.0,7.0,43,0.00,,---,0.00,VWS V14.01,2013-03-03 20:44:00,
2013-03-03 15:49:00,40.8,20.0,29.83,WNW,291,3.0,8.0,43,0.00,,---,0.00,VWS V14.01,2013-03-03 20:49:00,
2013-03-03 15:54:00,40.6,19.3,29.83,NW,317,1.0,8.0,42,0.00,,---,0.00,VWS V14.01,2013-03-03 20:54:00,
2013-03-03 15:59:00,40.5,19.8,29.83,North,1,1.0,8.0,43,0.00,,---,0.00,VWS V14.01,2013-03-03 20:59:00,
2013-03-03 16:04:00,40.6,19.9,29.83,NW,321,4.0,13.0,43,0.00,,---,0.00,VWS V14.01,2013-03-03 21:04:00,
2013-03-03 16:09:00,40.2,19.5,29.83,WNW,293,4.0,13.0,43,0.00,,---,0.00,VWS V14.01,2013-03-03 21:09:00,
2013-03-03 16:14:00,40.1,19.4,29.83,NNE,18,6.0,13.0,43,0.00,,---,0.00,VWS V14.01,2013-03-03 21:14:00,
2013-03-03 16:19:00,40.1,19.4,29.83,NW,309,3.0,13.0,43,0.00,,---,0.00,VWS V14.01,2013-03-03 21:19:00,
2013-03-03 16:24:00,39.9,19.2,29.83,West,281,4.0,13.0,43,0.00,,---,0.00,VWS V14.01,2013-03-03 21:24:00,
2013-03-03 16:29:00,39.9,19.2,29.84,ESE,116,1.0,13.0,43,0.00,,---,0.00,VWS V14.01,2013-03-03 21:29:00,
2013-03-03 16:34:00,39.7,19.0,29.83,NNE,30,1.0,6.0,43,0.00,,---,0.00,VWS V14.01,2013-03-03 21:34:00,
2013-03-03 16:39:00,39.7,19.6,29.83,NNW,333,3.0,7.0,44,0.00,,---,0.00,VWS V14.01,2013-03-03 21:39:00,
2013-03-03 16:44:00,39.6,19.5,29.84,West,267,1.0,7.0,44,0.00,,---,0.00,VWS V14.01,2013-03-03 21:44:00,
2013-03-03 16:49:00,39.6,19.5,29.84,WNW,283,1.0,7.0,44,0.00,,---,0.00,VWS V14.01,2013-03-03 21:49:00,
2013-03-03 16:54:00,39.5,19.4,29.84,WNW,293,2.0,7.0,44,0.00,,---,0.00,VWS V14.01,2013-03-03 21:54:00,
2013-03-03 16:59:00,39.4,19.3,29.84,NNW,333,3.0,7.0,44,0.00,,---,0.00,VWS V14.01,2013-03-03 21:59:00,
2013-03-03 17:04:00,39.2,19.7,29.84,SSW,205,1.0,2.0,45,0.00,,---,0.00,VWS V14.01,2013-03-03 22:04:00,
2013-03-03 17:09:00,39.0,19.0,29.84,NW,316,0.0,7.0,44,0.00,,---,0.00,VWS V14.01,2013-03-03 22:09:00,
2013-03-03 17:14:00,39.1,19.0,29.85,WNW,302,1.0,8.0,44,0.00,,---,0.00,VWS V14.01,2013-03-03 22:14:00,
2013-03-03 17:19:00,39.0,19.5,29.85,WNW,298,3.0,8.0,45,0.00,,---,0.00,VWS V14.01,2013-03-03 22:19:00,
2013-03-03 17:24:00,38.9,18.9,29.85,WNW,290,4.0,9.0,44,0.00,,---,0.00,VWS V14.01,2013-03-03 22:24:00,
2013-03-03 17:29:00,38.9,19.4,29.85,West,281,0.0,9.0,45,0.00,,---,0.00,VWS V14.01,2013-03-03 22:29:00,
2013-03-03 17:34:00,38.8,19.8,29.85,WNW,285,1.0,2.0,46,0.00,,---,0.00,VWS V14.01,2013-03-03 22:34:00,
2013-03-03 17:39:00,38.7,19.7,29.85,WSW,238,3.0,8.0,46,0.00,,---,0.00,VWS V14.01,2013-03-03 22:39:00,
2013-03-03 17:44:00,38.4,18.9,29.86,NE,40,1.0,8.0,45,0.00,,---,0.00,VWS V14.01,2013-03-03 22:44:00,
2013-03-03 17:49:00,38.1,19.2,29.86,NW,322,0.0,8.0,46,0.00,,---,0.00,VWS V14.01,2013-03-03 22:49:00,
2013-03-03 17:54:00,38.1,19.7,29.86,NE,51,4.0,8.0,47,0.00,,---,0.00,VWS V14.01,2013-03-03 22:54:00,
2013-03-03 17:59:00,38.0,19.6,29.87,West,264,4.0,8.0,47,0.00,,---,0.00,VWS V14.01,2013-03-03 22:59:00,
2013-03-03 18:04:00,37.9,20.0,29.87,NNE,19,3.0,5.0,48,0.00,,---,0.00,VWS V14.01,2013-03-03 23:04:00,
2013-03-03 18:09:00,37.8,19.4,29.87,West,281,1.0,9.0,47,0.00,,---,0.00,VWS V14.01,2013-03-03 23:09:00,
2013-03-03 18:14:00,37.6,19.7,29.87,North,359,1.0,9.0,48,0.00,,---,0.00,VWS V14.01,2013-03-03 23:14:00,
2013-03-03 18:19:00,37.5,19.6,29.87,South,184,1.0,10.0,48,0.00,,---,0.00,VWS V14.01,2013-03-03 23:19:00,
2013-03-03 18:24:00,37.3,19.4,29.88,NW,304,2.0,10.0,48,0.00,,---,0.00,VWS V14.01,2013-03-03 23:24:00,
2013-03-03 18:29:00,37.2,19.3,29.88,West,266,1.0,10.0,48,0.00,,---,0.00,VWS V14.01,2013-03-03 23:29:00,
2013-03-03 18:34:00,37.1,19.2,29.88,WNW,300,3.0,6.0,48,0.00,,---,0.00,VWS V14.01,2013-03-03 23:34:00,
2013-03-03 18:39:00,37.1,19.7,29.88,WSW,249,1.0,6.0,49,0.00,,---,0.00,VWS V14.01,2013-03-03 23:39:00,
2013-03-03 18:44:00,36.9,19.5,29.89,WNW,287,2.0,12.0,49,0.00,,---,0.00,VWS V14.01,2013-03-03 23:44:00,
2013-03-03 18:49:00,36.7,19.4,29.89,NE,46,1.0,12.0,49,0.00,,---,0.00,VWS V14.01,2013-03-03 23:49:00,
2013-03-03 18:54:00,36.6,19.7,29.89,West,276,2.0,12.0,50,0.00,,---,0.00,VWS V14.01,2013-03-03 23:54:00,
2013-03-03 18:59:00,36.5,19.6,29.90,WNW,295,4.0,12.0,50,0.00,,---,0.00,VWS V14.01,2013-03-03 23:59:00,
2013-03-03 19:04:00,36.4,19.5,29.90,SW,217,1.0,4.0,50,0.00,,---,0.00,VWS V14.01,2013-03-04 00:04:00,
2013-03-03 19:09:00,36.2,19.4,29.90,NE,39,6.0,7.0,50,0.00,,---,0.00,VWS V14.01,2013-03-04 00:09:00,
2013-03-03 19:14:00,36.0,19.2,29.90,North,351,3.0,7.0,50,0.00,,---,0.00,VWS V14.01,2013-03-04 00:14:00,
2013-03-03 19:19:00,35.7,19.4,29.90,SW,217,1.0,8.0,51,0.00,,---,0.00,VWS V14.01,2013-03-04 00:19:00,
2013-03-03 19:24:00,35.5,19.6,29.90,West,267,2.0,8.0,52,0.00,,---,0.00,VWS V14.01,2013-03-04 00:24:00,
2013-03-03 19:29:00,35.3,19.5,29.90,West,281,2.0,8.0,52,0.00,,---,0.00,VWS V14.01,2013-03-04 00:29:00,
2013-03-03 19:34:00,35.1,19.3,29.91,SE,124,3.0,6.0,52,0.00,,---,0.00,VWS V14.01,2013-03-04 00:34:00,
2013-03-03 19:39:00,34.9,19.1,29.91,NNW,333,2.0,6.0,52,0.00,,---,0.00,VWS V14.01,2013-03-04 00:39:00,
2013-03-03 19:44:00,34.7,18.9,29.91,WSW,248,0.0,6.0,52,0.00,,---,0.00,VWS V14.01,2013-03-04 00:44:00,
2013-03-03 19:49:00,34.5,18.7,29.91,NNE,30,1.0,8.0,52,0.00,,---,0.00,VWS V14.01,2013-03-04 00:49:00,
2013-03-03 19:54:00,34.4,19.0,29.91,NNE,15,0.0,8.0,53,0.00,,---,0.00,VWS V14.01,2013-03-04 00:54:00,
2013-03-03 19:59:00,34.2,18.9,29.92,WNW,284,2.0,8.0,53,0.00,,---,0.00,VWS V14.01,2013-03-04 00:59:00,
2013-03-03 20:04:00,34.1,18.8,29.92,ENE,76,0.0,5.0,53,0.00,,---,0.00,VWS V14.01,2013-03-04 01:04:00,
2013-03-03 20:09:00,33.9,19.0,29.92,South,172,2.0,5.0,54,0.00,,---,0.00,VWS V14.01,2013-03-04 01:09:00,
2013-03-03 20:14:00,33.8,18.5,29.92,North,349,1.0,11.0,53,0.00,,---,0.00,VWS V14.01,2013-03-04 01:14:00,
2013-03-03 20:19:00,33.7,18.4,29.92,West,275,2.0,11.0,53,0.00,,---,0.00,VWS V14.01,2013-03-04 01:19:00,
2013-03-03 20:24:00,33.6,18.3,29.92,NNE,22,2.0,11.0,53,0.00,,---,0.00,VWS V14.01,2013-03-04 01:24:00,
2013-03-03 20:29:00,33.5,18.6,29.93,West,274,1.0,11.0,54,0.00,,---,0.00,VWS V14.01,2013-03-04 01:29:00,
2013-03-03 20:34:00,33.3,18.5,29.93,NW,306,2.0,4.0,54,0.00,,---,0.00,VWS V14.01,2013-03-04 01:34:00,
2013-03-03 20:39:00,33.2,17.9,29.93,West,276,3.0,6.0,53,0.00,,---,0.00,VWS V14.01,2013-03-04 01:39:00,
2013-03-03 20:44:00,33.2,17.9,29.93,NW,306,2.0,6.0,53,0.00,,---,0.00,VWS V14.01,2013-03-04 01:44:00,
2013-03-03 20:49:00,33.0,18.2,29.93,WNW,289,3.0,6.0,54,0.00,,---,0.00,VWS V14.01,2013-03-04 01:49:00,
2013-03-03 20:54:00,32.9,18.1,29.93,WNW,302,7.0,8.0,54,0.00,,---,0.00,VWS V14.01,2013-03-04 01:54:00,
2013-03-03 20:59:00,32.9,18.1,29.93,North,356,3.0,8.0,54,0.00,,---,0.00,VWS V14.01,2013-03-04 01:59:00,
2013-03-03 21:04:00,32.8,18.0,29.93,NW,310,2.0,9.0,54,0.00,,---,0.00,VWS V14.01,2013-03-04 02:04:00,
2013-03-03 21:09:00,32.7,17.9,29.93,NW,326,3.0,9.0,54,0.00,,---,0.00,VWS V14.01,2013-03-04 02:09:00,
2013-03-03 21:14:00,32.5,17.3,29.94,North,356,3.0,9.0,53,0.00,,---,0.00,VWS V14.01,2013-03-04 02:14:00,
2013-03-03 21:19:00,32.5,17.7,29.94,NNW,346,4.0,9.0,54,0.00,,---,0.00,VWS V14.01,2013-03-04 02:19:00,
2013-03-03 21:24:00,32.4,17.6,29.94,NNW,338,3.0,10.0,54,0.00,,---,0.00,VWS V14.01,2013-03-04 02:24:00,
2013-03-03 21:29:00,32.3,17.5,29.94,West,274,1.0,10.0,54,0.00,,---,0.00,VWS V14.01,2013-03-04 02:29:00,
2013-03-03 21:34:00,32.3,17.1,29.94,NNW,335,2.0,9.0,53,0.00,,---,0.00,VWS V14.01,2013-03-04 02:34:00,
2013-03-03 21:39:00,32.1,17.3,29.94,West,277,4.0,9.0,54,0.00,,---,0.00,VWS V14.01,2013-03-04 02:39:00,
2013-03-03 21:44:00,32.1,17.3,29.94,WNW,287,1.0,9.0,54,0.00,,---,0.00,VWS V14.01,2013-03-04 02:44:00,
2013-03-03 21:49:00,32.0,17.2,29.94,WNW,285,3.0,9.0,54,0.00,,---,0.00,VWS V14.01,2013-03-04 02:49:00,
2013-03-03 21:54:00,31.9,17.2,29.94,South,169,2.0,9.0,54,0.00,,---,0.00,VWS V14.01,2013-03-04 02:54:00,
2013-03-03 21:59:00,31.8,17.1,29.94,WNW,302,3.0,9.0,54,0.00,,---,0.00,VWS V14.01,2013-03-04 02:59:00,
2013-03-03 22:04:00,31.8,17.1,29.94,WNW,300,4.0,4.0,54,0.00,,---,0.00,VWS V14.01,2013-03-04 03:04:00,
2013-03-03 22:09:00,31.7,17.0,29.95,SW,222,2.0,6.0,54,0.00,,---,0.00,VWS V14.01,2013-03-04 03:09:00,
2013-03-03 22:14:00,31.7,17.0,29.95,North,1,4.0,8.0,54,0.00,,---,0.00,VWS V14.01,2013-03-04 03:14:00,
2013-03-03 22:19:00,31.6,17.3,29.94,WNW,289,2.0,8.0,55,0.00,,---,0.00,VWS V14.01,2013-03-04 03:19:00,
2013-03-03 22:24:00,31.5,17.2,29.94,West,267,1.0,9.0,55,0.00,,---,0.00,VWS V14.01,2013-03-04 03:24:00,
2013-03-03 22:29:00,31.4,17.1,29.94,North,6,3.0,9.0,55,0.00,,---,0.00,VWS V14.01,2013-03-04 03:29:00,
2013-03-03 22:34:00,31.3,17.0,29.94,WSW,252,3.0,7.0,55,0.00,,---,0.00,VWS V14.01,2013-03-04 03:34:00,
2013-03-03 22:39:00,31.2,16.9,29.94,NW,315,2.0,7.0,55,0.00,,---,0.00,VWS V14.01,2013-03-04 03:39:00,
2013-03-03 22:44:00,31.1,17.2,29.94,West,274,1.0,7.0,56,0.00,,---,0.00,VWS V14.01,2013-03-04 03:44:00,
2013-03-03 22:49:00,31.1,17.2,29.94,NNE,27,1.0,10.0,56,0.00,,---,0.00,VWS V14.01,2013-03-04 03:49:00,
2013-03-03 22:54:00,31.0,17.2,29.94,NNE,25,4.0,10.0,56,0.00,,---,0.00,VWS V14.01,2013-03-04 03:54:00,
2013-03-03 22:59:00,30.9,17.1,29.94,SE,137,1.0,10.0,56,0.00,,---,0.00,VWS V14.01,2013-03-04 03:59:00,
2013-03-03 23:04:00,30.8,17.0,29.95,WSW,248,2.0,8.0,56,0.00,,---,0.00,VWS V14.01,2013-03-04 04:04:00,
2013-03-03 23:09:00,30.9,17.1,29.94,West,263,1.0,8.0,56,0.00,,---,0.00,VWS V14.01,2013-03-04 04:09:00,
2013-03-03 23:14:00,30.9,17.1,29.94,NNW,346,5.0,11.0,56,0.00,,---,0.00,VWS V14.01,2013-03-04 04:14:00,
2013-03-03 23:19:00,30.9,17.1,29.94,NNE,19,3.0,11.0,56,0.00,,---,0.00,VWS V14.01,2013-03-04 04:19:00,
2013-03-03 23:24:00,30.8,17.0,29.94,WNW,297,3.0,11.0,56,0.00,,---,0.00,VWS V14.01,2013-03-04 04:24:00,
2013-03-03 23:29:00,30.8,17.0,29.94,NW,310,2.0,11.0,56,0.00,,---,0.00,VWS V14.01,2013-03-04 04:29:00,
2013-03-03 23:34:00,30.7,17.3,29.94,West,264,4.0,5.0,57,0.00,,---,0.00,VWS V14.01,2013-03-04 04:34:00,
2013-03-03 23:39:00,30.7,17.3,29.94,SSE,160,2.0,14.0,57,0.00,,---,0.00,VWS V14.01,2013-03-04 04:39:00,
2013-03-03 23:44:00,30.7,17.3,29.94,NE,38,1.0,14.0,57,0.00,,---,0.00,VWS V14.01,2013-03-04 04:44:00,
2013-03-03 23:49:00,30.6,17.2,29.94,NNW,340,7.0,14.0,57,0.00,,---,0.00,VWS V14.01,2013-03-04 04:49:00,
2013-03-03 23:54:00,30.6,17.2,29.94,West,274,1.0,14.0,57,0.00,,---,0.00,VWS V14.01,2013-03-04 04:54:00,
2013-03-03 23:59:00,30.5,17.1,29.94,SW,228,0.0,14.0,57,0.00,,---,0.00,VWS V14.01,2013-03-04 04:59:00,